This is the latest recevied weather packets stored in our database for station/object HB4LO-13. If no packets are shown the sender has not sent any weather packets the latest 1 day(s).
| Time | Temp. | Humidity | Pressure | Rain* | Wind** | Luminosity | Snow |
|---|---|---|---|---|---|---|---|
| 1778002986 | 15.56° C | 62% | - | 0 mm | 0.45 m/s, 179° | - | - |
| 1778002926 | 15.56° C | 62% | - | 0 mm | 0.45 m/s, 178° | - | - |
| 1778002866 | 15.56° C | 62% | - | 0 mm | 0 m/s | - | - |
| 1778002806 | 15.56° C | 62% | - | 0 mm | 0.45 m/s, 186° | - | - |
| 1778002746 | 15.56° C | 62% | - | 0 mm | 0.89 m/s, 187° | - | - |
| 1778002686 | 15.56° C | 62% | - | 0 mm | 0.89 m/s, 185° | - | - |
| 1778002626 | 15.56° C | 62% | - | 0 mm | 1.34 m/s, 186° | - | - |
| 1778002566 | 15.56° C | 62% | - | 0 mm | 1.34 m/s, 184° | - | - |
| 1778002506 | 15.56° C | 62% | - | 0 mm | 1.34 m/s, 175° | - | - |
| 1778002446 | 15.56° C | 62% | - | 0 mm | 0 m/s | - | - |
| 1778002386 | 15.56° C | 62% | - | 0 mm | 0.89 m/s, 178° | - | - |
| 1778002326 | 15.56° C | 62% | - | 0 mm | 0.89 m/s, 176° | - | - |
| 1778002266 | 15.56° C | 62% | - | 0 mm | 0.89 m/s, 185° | - | - |
| 1778002206 | 15.56° C | 62% | - | 0 mm | 0.89 m/s, 166° | - | - |
| 1778002146 | 15.56° C | 62% | - | 0 mm | 1.34 m/s, 167° | - | - |
| 1778002092 | 15.56° C | 62% | - | 0 mm | 0.89 m/s, 188° | - | - |
| 1778002026 | 15.56° C | 62% | - | 0 mm | 0.89 m/s, 172° | - | - |
| 1778001966 | 15.56° C | 62% | - | 0 mm | 1.34 m/s, 166° | - | - |
| 1778001906 | 15.56° C | 62% | - | 0 mm | 2.24 m/s, 171° | - | - |
| 1778001846 | 15.56° C | 62% | - | 0 mm | 1.79 m/s, 169° | - | - |
| 1778001786 | 15.56° C | 62% | - | 0 mm | 1.34 m/s, 178° | - | - |
| 1778001726 | 15.56° C | 62% | - | 0 mm | 1.34 m/s, 172° | - | - |
| 1778001666 | 15.56° C | 62% | - | 0 mm | 1.79 m/s, 185° | - | - |
| 1778001606 | 15.56° C | 62% | - | 0 mm | 1.79 m/s, 169° | - | - |
| 1778001546 | 15.56° C | 62% | - | 0 mm | 0.89 m/s, 174° | - | - |
* Rain latest hour (hover to see other rain measurements)
** Current wind speed in m/s (hover to see current wind gust speed)